| time (UTC) | temp C | wind direction | speed KPH | gust KPH | rain 1hr cm | rain 24hr cm | rain mn cm | humidity % | barometer mb |
| 20260505114545 | 1 | 248 | 0.0 | 1.6 | 0.00 | 0.00 | 0.00 | 83 | 1005.1 |
| 20260505113032 | 1 | 248 | 0.0 | 0.0 | 0.00 | 0.00 | 0.00 | 82 | 1005.0 |
| 20260505111531 | 1 | 248 | 0.0 | 0.0 | 0.00 | 0.00 | 0.00 | 82 | 1005.0 |
| 20260505101523 | 2 | 213 | 0.0 | 1.6 | 0.00 | 0.00 | 0.00 | 79 | 1004.7 |
| 20260505100029 | 2 | 212 | 0.0 | 3.2 | 0.00 | 0.00 | 0.00 | 76 | 1004.5 |
| 20260505094519 | 2 | 320 | 0.0 | 1.6 | 0.00 | 0.00 | 0.00 | 76 | 1004.4 |
| 20260505093016 | 3 | 319 | 0.0 | 0.0 | 0.00 | 0.00 | 0.00 | 73 | 1004.4 |
| 20260505091513 | 3 | 319 | 0.0 | 4.8 | 0.00 | 0.00 | 0.00 | 71 | 1004.4 |
| 20260505090010 | 5 | 329 | 0.0 | 1.6 | 0.00 | 0.00 | 0.00 | 69 | 1004.5 |
| 20260505084514 | 5 | 329 | 0.0 | 1.6 | 0.00 | 0.00 | 0.00 | 67 | 1004.6 |
| 20260505083011 | 5 | 327 | 0.0 | 1.6 | 0.00 | 0.00 | 0.00 | 67 | 1004.7 |
| 20260505081508 | 5 | 327 | 0.0 | 1.6 | 0.00 | 0.00 | 0.00 | 66 | 1004.8 |
| 20260505080005 | 5 | 327 | 0.0 | 1.6 | 0.00 | 0.00 | 0.00 | 66 | 1004.8 |
| 20260505074504 | 5 | 355 | 0.0 | 1.6 | 0.00 | 0.00 | 0.00 | 64 | 1004.8 |
| 20260505073000 | 5 | 345 | 0.0 | 0.0 | 0.00 | 0.00 | 0.00 | 63 | 1004.8 |
| 20260505071559 | 6 | 345 | 0.0 | 3.2 | 0.00 | 0.00 | 0.00 | 59 | 1004.9 |
| 20260505070058 | 6 | 317 | 0.0 | 1.6 | 0.00 | 0.00 | 0.00 | 59 | 1004.8 |
| 20260505064553 | 6 | 317 | 0.0 | 1.6 | 0.00 | 0.00 | 0.00 | 58 | 1004.7 |
| 20260505063053 | 7 | 317 | 0.0 | 3.2 | 0.00 | 0.00 | 0.00 | 57 | 1004.6 |
| 20260505061548 | 7 | 317 | 0.0 | 3.2 | 0.00 | 0.00 | 0.00 | 54 | 1004.5 |
| 20260505060044 | 8 | 318 | 1.6 | 4.8 | 0.00 | 0.00 | 0.00 | 52 | 1004.4 |
| 20260505054544 | 8 | 360 | 0.0 | 1.6 | 0.00 | 0.00 | 0.00 | 51 | 1004.1 |
| 20260505053044 | 8 | 43 | 0.0 | 1.6 | 0.00 | 0.00 | 0.00 | 50 | 1003.9 |
| 20260505051542 | 8 | 47 | 0.0 | 1.6 | 0.00 | 0.00 | 0.00 | 50 | 1004.0 |
| 20260505050118 | 8 | 47 | 0.0 | 1.6 | 0.00 | 0.00 | 0.00 | 49 | 1004.1 |
| 20260505041552 | 10 | 65 | 0.0 | 1.6 | 0.00 | 0.00 | 0.00 | 45 | 1003.7 |
| 20260505040052 | 10 | 360 | 0.0 | 1.6 | 0.00 | 0.00 | 0.00 | 42 | 1003.6 |
| 20260505034540 | 11 | 360 | 0.0 | 1.6 | 0.00 | 0.00 | 0.00 | 40 | 1003.3 |
| 20260505033045 | 12 | 338 | 0.0 | 3.2 | 0.00 | 0.00 | 0.00 | 38 | 1003.0 |
| 20260505031545 | 12 | 360 | 0.0 | 6.4 | 0.00 | 0.00 | 0.00 | 36 | 1002.8 |
| 20260505030042 | 13 | 333 | 3.2 | 6.4 | 0.00 | 0.00 | 0.00 | 32 | 1002.5 |
| 20260505024538 | 14 | 333 | 0.0 | 6.4 | 0.00 | 0.00 | 0.00 | 31 | 1002.5 |
| 20260505023044 | 15 | 319 | 0.0 | 8.0 | 0.00 | 0.00 | 0.00 | 28 | 1002.3 |
| 20260505021541 | 16 | 331 | 1.6 | 6.4 | 0.00 | 0.00 | 0.00 | 27 | 1002.2 |
| 20260505020038 | 16 | 351 | 1.6 | 11.3 | 0.00 | 0.00 | 0.00 | 26 | 1002.1 |
| 20260505014556 | 17 | 341 | 1.6 | 8.0 | 0.00 | 0.00 | 0.00 | 26 | 1002.3 |
| 20260505013039 | 17 | 309 | 3.2 | 16.1 | 0.00 | 0.00 | 0.00 | 25 | 1002.4 |
| 20260505011534 | 17 | 323 | 4.8 | 11.3 | 0.00 | 0.00 | 0.00 | 25 | 1002.5 |
| 20260505010034 | 17 | 343 | 3.2 | 11.3 | 0.00 | 0.00 | 0.00 | 24 | 1002.5 |
| 20260505004538 | 17 | 315 | 3.2 | 12.9 | 0.00 | 0.00 | 0.00 | 21 | 1002.6 |
| 20260505003032 | 18 | 319 | 1.6 | 14.5 | 0.00 | 0.00 | 0.00 | 22 | 1002.6 |
| 20260505001531 | 18 | 313 | 4.8 | 9.7 | 0.00 | 0.00 | 0.00 | 21 | 1002.7 |
| 20260505000034 | 18 | 290 | 3.2 | 19.3 | 0.00 | 0.00 | 0.00 | 22 | 1002.8 |
| 20260504234529 | 18 | 304 | 1.6 | 9.7 | 0.00 | 0.00 | 0.00 | 22 | 1002.8 |
| 20260504233032 | 18 | 311 | 4.8 | 9.7 | 0.00 | 0.00 | 0.00 | 24 | 1002.9 |
| 20260504231527 | 18 | 326 | 1.6 | 11.3 | 0.00 | 0.00 | 0.00 | 23 | 1003.0 |
| 20260504230026 | 18 | 360 | 3.2 | 9.7 | 0.00 | 0.00 | 0.00 | 21 | 1003.1 |
| 20260504224528 | 18 | 315 | 1.6 | 9.7 | 0.00 | 0.00 | 0.00 | 22 | 1003.1 |
| 20260504223024 | 18 | 355 | 4.8 | 14.5 | 0.00 | 0.00 | 0.00 | 21 | 1003.3 |
| 20260504221523 | 18 | 338 | 4.8 | 12.9 | 0.00 | 0.00 | 0.00 | 20 | 1003.4 |
| 20260504220022 | 19 | 313 | 6.4 | 19.3 | 0.00 | 0.00 | 0.00 | 18 | 1003.4 |
| 20260504214523 | 19 | 313 | 4.8 | 14.5 | 0.00 | 0.00 | 0.00 | 21 | 1003.5 |
| 20260504213042 | 19 | 237 | 1.6 | 14.5 | 0.00 | 0.00 | 0.00 | 25 | 1003.6 |
| 20260504211518 | 20 | 230 | 1.6 | 12.9 | 0.00 | 0.00 | 0.00 | 20 | 1003.9 |
| 20260504210018 | 19 | 319 | 1.6 | 12.9 | 0.00 | 0.00 | 0.00 | 22 | 1004.0 |
| 20260504204513 | 19 | 321 | 3.2 | 16.1 | 0.00 | 0.00 | 0.00 | 21 | 1004.1 |
| 20260504203012 | 18 | 284 | 0.0 | 12.9 | 0.00 | 0.00 | 0.00 | 26 | 1004.2 |
| 20260504201517 | 18 | 26 | 0.0 | 9.7 | 0.00 | 0.00 | 0.00 | 24 | 1004.3 |
| 20260504200010 | 18 | 178 | 3.2 | 9.7 | 0.00 | 0.00 | 0.00 | 22 | 1004.4 |
| 20260504194507 | 18 | 152 | 3.2 | 11.3 | 0.00 | 0.00 | 0.00 | 23 | 1004.5 |
| 20260504193004 | 18 | 9 | 3.2 | 9.7 | 0.00 | 0.00 | 0.00 | 26 | 1004.7 |
| 20260504191501 | 17 | 304 | 1.6 | 6.4 | 0.00 | 0.00 | 0.00 | 23 | 1005.0 |
| 20260504190119 | 17 | 292 | 1.6 | 8.0 | 0.00 | 0.00 | 0.00 | 28 | 1005.0 |
| 20260504184606 | 17 | 5 | 6.4 | 11.3 | 0.00 | 0.00 | 0.00 | 28 | 1005.1 |
| 20260504183054 | 16 | 341 | 4.8 | 9.7 | 0.00 | 0.00 | 0.00 | 28 | 1005.2 |
| 20260504181550 | 16 | 159 | 0.0 | 6.4 | 0.00 | 0.00 | 0.00 | 35 | 1005.4 |
| 20260504180048 | 15 | 159 | 0.0 | 4.8 | 0.00 | 0.00 | 0.00 | 36 | 1005.6 |
| 20260504174543 | 15 | 327 | 1.6 | 6.4 | 0.00 | 0.00 | 0.00 | 38 | 1005.8 |
| 20260504173047 | 13 | 211 | 0.0 | 4.8 | 0.00 | 0.00 | 0.00 | 40 | 1006.0 |
| 20260504171535 | 12 | 142 | 3.2 | 6.4 | 0.00 | 0.00 | 0.00 | 42 | 1006.3 |